パンスターズ彗星

C/2022 N2 ( PanSTARRS )

English version
Home page
Updated on July 13, 2025

---------------------------------------------------------------------

・ プロフィール

発見日 2022年7月4日
発見光度 20.6等
発見者 Pan-STARRS 2 telescope (Haleakala)

・ 写真集

・ 軌道要素

Epoch 2025 May 5.0 TT = JDT 2460800.5
T 2025 July 31.78488 TT                                 Pike
q   3.8253898            (2000.0)            P               Q
z  -0.0008596      Peri.   75.39434     +0.81491739     -0.57625426
 +/-0.0000007      Node   319.74054     +0.48797856     +0.73988375
e   1.0032884      Incl.    5.50293     +0.31270844     +0.34713553
From 1694 observations 2022 June 2-2025 Feb. 16, mean residual 0".5.

・ 星図

・ 光度変化

        m1 = 5.0 + 5 logΔ + 10.0 log r

---------------------------------------------------------------------

軌道要素はM.P.E.C. 2025-D254に掲載されたものです。
星図はステラナビゲータ Ver.10 (アストロアーツ) で作成したものです。
光度グラフはComet for Windowsで作成したものです。

---------------------------------------------------------------------

Copyright(C) Seiichi Yoshida (comet@aerith.net). All rights reserved.